Maastricht, Netherlands

10:39 AM CEST on September 25, 2017 (GMT +0200)
Maastricht-Aachen

Weather History for EHBK - February, 2013

Change the Weather History Date:

Saturday, February 2, 2013

  Actual Average Record
Temperature  
Mean Temperature 38 °F -  
Max Temperature 41 °F 42 °F 62 °F (2002)
Min Temperature 35 °F 31 °F 12 °F (2012)
Degree Days  
Heating Degree Days 27    
Moisture  
Dew Point 34 °F    
Average Humidity 87    
Maximum Humidity 100    
Minimum Humidity 49    
Precipitation  
Precipitation 0.04 in 0.07 in - ()
Sea Level Pressure  
Sea Level Pressure 29.71 in    
Wind  
Wind Speed 7 mph ()    
Max Wind Speed 21 mph    
Max Gust Speed -    
Visibility 6.2 miles    
Events Rain    
Averages and records for this station are not official NWS values.
T = Trace of Precipitation, MM = Missing Value Source: Averaged Metar Reports

Daily Weather History Graph

Daily Weather History Graph

Search for Another Location

Airport or City:

Trip Planner

Search our weather history database for the weather conditions in past years. The results will help you decide how hot, cold, wet, or windy it might be!

Date:

Astronomy

Feb. 02, 2013 Rise Set
Actual Time 8:11 AM CET 5:30 PM CET
Civil Twilight 7:36 AM CET 6:05 PM CET
Nautical Twilight 6:56 AM CET 6:45 PM CET
Astronomical Twilight 6:18 AM CET 7:23 PM CET
Moon 12:05 AM CET (2/2) 10:22 AM CET (2/2)
Length of Visible Light 10h 29m
Length of Day
9h 18m
Waning Gibbous, 62% of the Moon is Illuminated
Feb 2
Waning Gibbous
Feb 3
Last Quarter
Feb 10
New
Feb 17
First Quarter
Feb 25
Full

Hourly Weather History & Observations

Time (CET) Temp. Windchill Dew Point Humidity Pressure Visibility Wind Dir Wind Speed Gust Speed Precip Events Conditions
12:25 AM 37.4 °F 33.8 °F 35.6 °F 93% 29.42 in 5.0 mi West 4.6 mph - N/A   Overcast
12:55 AM 37.4 °F 33.8 °F 35.6 °F 93% 29.44 in 5.0 mi West 4.6 mph - N/A   Mostly Cloudy
1:00 AM 37 °F - 36 °F 97% 29.46 in 5 mi West 4.5 mph - -   Mist
1:25 AM 37.4 °F 32.8 °F 37.4 °F 100% 29.44 in 4.3 mi West 5.8 mph - N/A   Overcast
1:55 AM 37.4 °F 32.8 °F 37.4 °F 100% 29.44 in 4.3 mi West 5.8 mph - N/A   Overcast
2:25 AM 37.4 °F 32.8 °F 37.4 °F 100% 29.44 in 3.7 mi West 5.8 mph - N/A   Overcast
2:55 AM 37.4 °F 33.8 °F 37.4 °F 100% 29.44 in 3.1 mi West 4.6 mph - N/A   Overcast
3:25 AM 37.4 °F 33.8 °F 37.4 °F 100% 29.47 in 3.1 mi West 4.6 mph - N/A   Overcast
3:55 AM 37.4 °F 32.8 °F 35.6 °F 93% 29.47 in 6.2 mi WNW 5.8 mph - N/A   Drizzle
4:00 AM 37 °F - 36 °F 96% 29.50 in 11 mi WNW 6.7 mph - - Rain Rain
4:25 AM 37.4 °F 33.8 °F 37.4 °F 100% 29.47 in 6.2 mi West 4.6 mph - N/A   Overcast
4:55 AM 37.4 °F 33.8 °F 37.4 °F 100% 29.47 in 4.3 mi WSW 4.6 mph - N/A Rain Light Rain
5:25 AM 37.4 °F 33.8 °F 37.4 °F 100% 29.47 in 5.0 mi West 4.6 mph - N/A   Mostly Cloudy
5:55 AM 37.4 °F 33.8 °F 37.4 °F 100% 29.50 in 5.0 mi West 4.6 mph - N/A   Overcast
6:25 AM 37.4 °F 33.8 °F 37.4 °F 100% 29.50 in 3.1 mi West 4.6 mph - N/A   Partly Cloudy
6:55 AM 39.2 °F 35.0 °F 37.4 °F 93% 29.50 in 3.7 mi West 5.8 mph - N/A   Partly Cloudy
7:00 AM 38 °F - 38 °F 100% 29.54 in 4 mi West 6.7 mph - - Rain Drizzle
7:25 AM 39.2 °F 35.9 °F 37.4 °F 93% 29.53 in 3.7 mi WSW 4.6 mph - N/A   Light Drizzle
7:55 AM 39.2 °F 34.2 °F 39.2 °F 100% 29.53 in 4.3 mi WNW 6.9 mph - N/A   Mostly Cloudy
8:25 AM 39.2 °F 33.6 °F 37.4 °F 93% 29.56 in 6.2 mi WNW 8.1 mph - N/A   Overcast
8:55 AM 39.2 °F 34.2 °F 37.4 °F 93% 29.56 in 6.2 mi WNW 6.9 mph - N/A   Overcast
9:25 AM 39.2 °F 33.6 °F 37.4 °F 93% 29.59 in 6.2 mi NW 8.1 mph - N/A   Overcast
9:55 AM 39.2 °F 32.0 °F 37.4 °F 93% 29.59 in 6.2 mi NW 11.5 mph - N/A   Overcast
10:00 AM 39 °F - 38 °F 93% 29.64 in 4 mi NW 13.4 mph - - Rain Drizzle
10:25 AM 37.4 °F 26.9 °F 35.6 °F 93% 29.62 in 6.2 mi NNW 20.7 mph - N/A   Drizzle
10:55 AM 35.6 °F 26.6 °F 33.8 °F 93% 29.65 in 6.2 mi North 13.8 mph - N/A   Partly Cloudy
11:25 AM 35.6 °F 26.2 °F 33.8 °F 93% 29.68 in 6.2 mi North 15.0 mph - N/A   Light Drizzle
11:55 AM 35.6 °F 27.1 °F 33.8 °F 93% 29.74 in 6.2 mi North 12.7 mph - N/A Rain Light Rain
12:25 PM 37.4 °F 30.3 °F 35.6 °F 93% 29.74 in 6.2 mi North 10.4 mph - N/A   Mostly Cloudy
12:55 PM 37.4 °F 29.8 °F 35.6 °F 93% 29.77 in 6.2 mi North 11.5 mph - N/A   Overcast
1:00 PM 38 °F - 34 °F 81% 29.79 in 18 mi North 13.4 mph - -   Partly Cloudy
1:25 PM 39.2 °F 31.2 °F 33.8 °F 81% 29.77 in 6.2 mi North 13.8 mph - N/A   Mostly Cloudy
1:55 PM 39.2 °F 31.6 °F 33.8 °F 81% 29.80 in 6.2 mi NNW 12.7 mph - N/A   Mostly Cloudy
2:25 PM 39.2 °F 30.8 °F 30.2 °F 70% 29.80 in 6.2 mi NNW 15.0 mph - N/A   Mostly Cloudy
2:55 PM 41.0 °F 33.1 °F 28.4 °F 61% 29.80 in 6.2 mi NNW 15.0 mph - N/A   Partly Cloudy
3:25 PM 41.0 °F 33.5 °F 28.4 °F 61% 29.83 in 6.2 mi North 13.8 mph - N/A   Mostly Cloudy
3:55 PM 41.0 °F 34.3 °F 28.4 °F 61% 29.83 in 6.2 mi North 11.5 mph - N/A   Mostly Cloudy
4:00 PM 41 °F - 28 °F 49% 29.87 in 19 mi NNW 13.4 mph - -   Partly Cloudy
4:25 PM 39.2 °F 30.8 °F 26.6 °F 61% 29.86 in 6.2 mi North 15.0 mph - N/A   Unknown
4:55 PM 39.2 °F 33.0 °F 26.6 °F 61% 29.86 in 6.2 mi North 9.2 mph - N/A   Partly Cloudy
5:25 PM 39.2 °F 32.0 °F 28.4 °F 65% 29.89 in 6.2 mi NNW 11.5 mph - N/A   Unknown
5:55 PM 37.4 °F 32.1 °F 30.2 °F 75% 29.89 in 6.2 mi NW 6.9 mph - N/A   Mostly Cloudy
6:25 PM 37.4 °F 29.8 °F 30.2 °F 75% 29.92 in 6.2 mi NNW 11.5 mph - N/A   Overcast
6:55 PM 37.4 °F 30.3 °F 30.2 °F 75% 29.95 in 6.2 mi NNW 10.4 mph - N/A   Unknown
7:00 PM 36 °F - 30 °F 73% 29.98 in 25 mi NNW 8.9 mph - -   Partly Cloudy
7:25 PM 35.6 °F 29.9 °F 30.2 °F 81% 29.95 in 6.2 mi NW 6.9 mph - N/A   Unknown
7:55 PM 35.6 °F 30.7 °F 32.0 °F 87% 29.98 in 6.2 mi WNW 5.8 mph - N/A   Overcast
8:25 PM 35.6 °F 29.9 °F 32.0 °F 87% 29.98 in 6.2 mi WNW 6.9 mph - N/A   Mostly Cloudy
9:25 PM 35.6 °F 30.7 °F 32.0 °F 87% 29.98 in 6.2 mi West 5.8 mph - N/A   Overcast
9:55 PM 35.6 °F 30.7 °F 32.0 °F 87% 30.01 in 6.2 mi West 5.8 mph - N/A   Overcast
10:00 PM 36 °F - 32 °F 79% 30.03 in 14 mi NW 4.5 mph - -   Overcast
10:25 PM 35.6 °F 29.9 °F 32.0 °F 87% 30.01 in 6.2 mi West 6.9 mph - N/A   Overcast
10:55 PM 35.6 °F 29.9 °F 32.0 °F 87% 30.01 in 6.2 mi WNW 6.9 mph - N/A Rain Light Rain
11:25 PM 35.6 °F 30.7 °F 32.0 °F 87% 30.01 in 6.2 mi West 5.8 mph - N/A   Overcast
11:55 PM 35.6 °F 29.9 °F 32.0 °F 87% 30.01 in 6.2 mi West 6.9 mph - N/A   Overcast